Time,TemperatureF,DewpointF,PressureIn,WindDirection,WindDirectionDegrees,WindSpeedMPH,WindSpeedGustMPH,Humidity,HourlyPrecipIn,Conditions,Clouds,dailyrainin,SoftwareType,DateUTC
2013-02-26 00:02:00,40.0,33.0,29.70,West,276,13.0,24.0,75,0.00,,,0.03,,2013-02-26 06:02:00,
2013-02-26 00:11:00,40.0,33.0,29.70,West,276,13.0,24.0,75,0.00,,,0.03,,2013-02-26 06:11:00,
2013-02-26 00:21:00,40.0,33.0,29.71,WNW,294,13.0,24.0,75,0.00,,,0.03,,2013-02-26 06:21:00,
2013-02-26 00:32:00,40.0,32.0,29.71,West,276,9.0,21.0,74,0.00,,,0.03,,2013-02-26 06:32:00,
2013-02-26 00:41:00,40.0,32.0,29.71,West,276,9.0,21.0,74,0.00,,,0.03,,2013-02-26 06:41:00,
2013-02-26 00:51:00,40.0,32.0,29.71,West,277,14.0,22.0,74,0.00,,,0.03,,2013-02-26 06:51:00,
2013-02-26 01:01:00,40.0,32.0,29.72,WNW,297,12.0,22.0,74,0.00,,,0.03,,2013-02-26 07:01:00,
2013-02-26 01:11:00,40.0,32.0,29.72,WNW,297,12.0,22.0,74,0.00,,,0.03,,2013-02-26 07:11:00,
2013-02-26 01:22:00,40.0,32.0,29.73,WNW,284,13.0,22.0,73,0.00,,,0.03,,2013-02-26 07:22:00,
2013-02-26 01:31:00,40.0,32.0,29.73,West,278,14.0,26.0,72,0.00,,,0.03,,2013-02-26 07:31:00,
2013-02-26 01:41:00,40.0,32.0,29.73,West,278,14.0,26.0,72,0.00,,,0.03,,2013-02-26 07:41:00,
2013-02-26 01:51:00,40.0,32.0,29.74,West,278,10.0,26.0,72,0.00,,,0.03,,2013-02-26 07:51:00,
2013-02-26 02:02:00,40.0,32.0,29.75,West,269,13.0,24.0,72,0.00,,,0.03,,2013-02-26 08:02:00,
2013-02-26 02:11:00,40.0,32.0,29.75,West,269,13.0,24.0,72,0.00,,,0.03,,2013-02-26 08:11:00,
2013-02-26 02:21:00,40.0,31.0,29.75,West,279,12.0,26.0,71,0.00,,,0.03,,2013-02-26 08:21:00,
2013-02-26 02:31:00,40.0,32.0,29.75,North,0,12.0,24.0,72,0.00,,,0.03,,2013-02-26 08:31:00,
2013-02-26 02:42:00,40.0,32.0,29.75,North,0,12.0,24.0,72,0.00,,,0.03,,2013-02-26 08:42:00,
2013-02-26 02:52:00,40.0,31.0,29.75,WNW,288,12.0,20.0,71,0.00,,,0.03,,2013-02-26 08:52:00,
2013-02-26 03:01:00,40.0,32.0,29.75,West,270,9.0,18.0,72,0.00,,,0.03,,2013-02-26 09:01:00,
2013-02-26 03:11:00,40.0,32.0,29.75,West,270,9.0,18.0,72,0.00,,,0.03,,2013-02-26 09:11:00,
2013-02-26 03:21:00,40.0,32.0,29.75,WNW,291,11.0,21.0,72,0.00,,,0.03,,2013-02-26 09:21:00,
2013-02-26 03:31:00,40.0,32.0,29.75,West,278,9.0,17.0,72,0.00,,,0.03,,2013-02-26 09:31:00,
2013-02-26 03:43:00,40.0,32.0,29.75,West,278,9.0,17.0,72,0.00,,,0.03,,2013-02-26 09:43:00,
2013-02-26 03:51:00,40.0,31.0,29.76,West,273,9.0,22.0,71,0.00,,,0.03,,2013-02-26 09:51:00,
2013-02-26 04:01:00,40.0,31.0,29.76,West,268,12.0,24.0,70,0.00,,,0.03,,2013-02-26 10:01:00,
2013-02-26 04:11:00,40.0,31.0,29.76,West,268,12.0,24.0,70,0.00,,,0.03,,2013-02-26 10:11:00,
2013-02-26 04:21:00,40.0,31.0,29.76,WNW,289,12.0,25.0,70,0.00,,,0.03,,2013-02-26 10:21:00,
2013-02-26 04:31:00,40.0,31.0,29.76,WNW,284,12.0,22.0,70,0.00,,,0.03,,2013-02-26 10:31:00,
2013-02-26 04:41:00,40.0,31.0,29.76,WNW,284,12.0,22.0,70,0.00,,,0.03,,2013-02-26 10:41:00,
2013-02-26 04:52:00,40.0,31.0,29.76,West,279,12.0,23.0,70,0.00,,,0.03,,2013-02-26 10:52:00,
2013-02-26 05:01:00,40.0,31.0,29.76,WNW,289,8.0,21.0,70,0.00,,,0.03,,2013-02-26 11:01:00,
2013-02-26 05:12:00,40.0,31.0,29.76,WNW,289,8.0,21.0,70,0.00,,,0.03,,2013-02-26 11:12:00,
2013-02-26 05:21:00,40.0,31.0,29.76,West,270,10.0,20.0,70,0.00,,,0.03,,2013-02-26 11:21:00,
2013-02-26 05:32:00,40.0,31.0,29.78,WNW,283,10.0,20.0,70,0.00,,,0.03,,2013-02-26 11:32:00,
2013-02-26 05:42:00,40.0,31.0,29.78,WNW,283,10.0,20.0,70,0.00,,,0.03,,2013-02-26 11:42:00,
2013-02-26 05:52:00,40.0,31.0,29.78,West,281,11.0,21.0,71,0.00,,,0.03,,2013-02-26 11:52:00,
2013-02-26 06:01:00,40.0,31.0,29.79,West,270,9.0,22.0,71,0.00,,,0.03,,2013-02-26 12:01:00,
2013-02-26 06:11:00,40.0,31.0,29.79,West,270,9.0,22.0,71,0.00,,,0.03,,2013-02-26 12:11:00,
2013-02-26 06:22:00,39.0,30.0,29.80,West,280,10.0,22.0,71,0.00,,,0.03,,2013-02-26 12:22:00,
2013-02-26 06:32:00,39.0,31.0,29.82,West,281,9.0,17.0,72,0.00,,,0.01,,2013-02-26 12:32:00,
2013-02-26 06:42:00,39.0,31.0,29.82,West,281,9.0,17.0,72,0.00,,,0.01,,2013-02-26 12:42:00,
2013-02-26 06:52:00,39.0,31.0,29.82,West,276,9.0,18.0,72,0.00,,,0.01,,2013-02-26 12:52:00,
2013-02-26 07:01:00,39.0,31.0,29.83,West,275,12.0,25.0,72,0.00,,,0.00,,2013-02-26 13:01:00,
2013-02-26 07:11:00,39.0,31.0,29.83,West,275,12.0,25.0,72,0.00,,,0.00,,2013-02-26 13:11:00,
2013-02-26 07:21:00,39.0,31.0,29.83,WNW,290,9.0,21.0,72,0.00,,,0.00,,2013-02-26 13:21:00,
2013-02-26 07:32:00,39.0,31.0,29.84,West,273,8.0,21.0,73,0.00,,,0.00,,2013-02-26 13:32:00,
2013-02-26 07:42:00,39.0,31.0,29.84,West,273,8.0,21.0,73,0.00,,,0.00,,2013-02-26 13:42:00,
2013-02-26 07:51:00,39.0,31.0,29.84,WNW,282,12.0,20.0,73,0.00,,,0.00,,2013-02-26 13:51:00,
2013-02-26 08:01:00,39.0,31.0,29.84,West,279,12.0,20.0,72,0.00,,,0.00,,2013-02-26 14:01:00,
2013-02-26 08:11:00,39.0,31.0,29.84,West,279,12.0,20.0,72,0.00,,,0.00,,2013-02-26 14:11:00,
2013-02-26 08:21:00,39.0,31.0,29.85,West,272,9.0,21.0,72,0.00,,,0.00,,2013-02-26 14:21:00,
2013-02-26 08:32:00,40.0,32.0,29.85,West,279,8.0,16.0,72,0.00,,,0.00,,2013-02-26 14:32:00,
2013-02-26 08:42:00,40.0,32.0,29.85,West,279,8.0,16.0,72,0.00,,,0.00,,2013-02-26 14:42:00,
2013-02-26 08:52:00,40.0,32.0,29.85,WNW,289,9.0,17.0,72,0.00,,,0.00,,2013-02-26 14:52:00,
2013-02-26 09:02:00,41.0,32.0,29.87,WNW,284,9.0,17.0,71,0.00,,,0.00,,2013-02-26 15:02:00,
2013-02-26 09:11:00,41.0,32.0,29.87,WNW,284,9.0,17.0,71,0.00,,,0.00,,2013-02-26 15:11:00,
2013-02-26 09:21:00,41.0,32.0,29.88,West,278,8.0,18.0,71,0.00,,,0.00,,2013-02-26 15:21:00,
2013-02-26 09:32:00,42.0,33.0,29.87,WNW,283,9.0,20.0,69,0.00,,,0.00,,2013-02-26 15:32:00,
2013-02-26 09:42:00,42.0,33.0,29.87,WNW,283,9.0,20.0,69,0.00,,,0.00,,2013-02-26 15:42:00,
2013-02-26 09:51:00,42.0,33.0,29.88,WNW,292,9.0,20.0,69,0.00,,,0.00,,2013-02-26 15:51:00,
2013-02-26 10:01:00,43.0,33.0,29.88,NW,310,9.0,20.0,67,0.00,,,0.00,,2013-02-26 16:01:00,
2013-02-26 10:11:00,43.0,33.0,29.88,NW,310,9.0,20.0,67,0.00,,,0.00,,2013-02-26 16:11:00,
2013-02-26 10:22:00,44.0,33.0,29.89,WNW,293,10.0,18.0,66,0.00,,,0.00,,2013-02-26 16:22:00,
2013-02-26 10:32:00,45.0,34.0,29.90,West,278,6.0,13.0,64,0.00,,,0.00,,2013-02-26 16:32:00,
2013-02-26 10:42:00,45.0,34.0,29.90,West,278,6.0,13.0,64,0.00,,,0.00,,2013-02-26 16:42:00,
2013-02-26 10:51:00,45.0,34.0,29.90,West,277,8.0,16.0,64,0.00,,,0.00,,2013-02-26 16:51:00,
2013-02-26 11:01:00,46.0,34.0,29.90,WNW,287,9.0,16.0,62,0.00,,,0.00,,2013-02-26 17:01:00,
2013-02-26 11:11:00,46.0,34.0,29.90,WNW,287,9.0,16.0,62,0.00,,,0.00,,2013-02-26 17:11:00,
2013-02-26 11:21:00,47.0,34.0,29.91,West,268,7.0,16.0,61,0.00,,,0.00,,2013-02-26 17:21:00,
2013-02-26 11:32:00,48.0,34.0,29.91,WNW,302,6.0,17.0,59,0.00,,,0.00,,2013-02-26 17:32:00,
2013-02-26 11:41:00,48.0,34.0,29.91,WNW,302,6.0,17.0,59,0.00,,,0.00,,2013-02-26 17:41:00,
2013-02-26 11:52:00,49.0,35.0,29.91,NW,311,6.0,17.0,58,0.00,,,0.00,,2013-02-26 17:52:00,
2013-02-26 12:01:00,50.0,34.0,29.92,NNW,348,9.0,20.0,55,0.00,,,0.00,,2013-02-26 18:01:00,
2013-02-26 12:12:00,50.0,34.0,29.92,NNW,348,9.0,20.0,55,0.00,,,0.00,,2013-02-26 18:12:00,
2013-02-26 12:21:00,50.0,34.0,29.92,WNW,283,8.0,20.0,55,0.00,,,0.00,,2013-02-26 18:21:00,
2013-02-26 12:32:00,50.0,34.0,29.92,West,280,9.0,16.0,53,0.00,,,0.00,,2013-02-26 18:32:00,
2013-02-26 12:42:00,50.0,34.0,29.92,West,280,9.0,16.0,53,0.00,,,0.00,,2013-02-26 18:42:00,
2013-02-26 12:52:00,51.0,34.0,29.91,NW,309,10.0,20.0,52,0.00,,,0.00,,2013-02-26 18:52:00,
2013-02-26 13:01:00,51.0,34.0,29.92,WNW,288,7.0,15.0,52,0.00,,,0.00,,2013-02-26 19:01:00,
2013-02-26 13:11:00,51.0,34.0,29.92,WNW,288,7.0,15.0,52,0.00,,,0.00,,2013-02-26 19:11:00,
2013-02-26 13:22:00,52.0,34.0,29.92,NW,318,8.0,15.0,50,0.00,,,0.00,,2013-02-26 19:22:00,
2013-02-26 13:32:00,52.0,34.0,29.89,West,269,7.0,16.0,51,0.00,,,0.00,,2013-02-26 19:32:00,
2013-02-26 13:41:00,52.0,34.0,29.89,West,269,7.0,16.0,51,0.00,,,0.00,,2013-02-26 19:41:00,
2013-02-26 13:51:00,52.0,34.0,29.89,NW,318,6.0,16.0,51,0.00,,,0.00,,2013-02-26 19:51:00,
2013-02-26 14:01:00,52.0,33.0,29.89,WNW,295,7.0,13.0,49,0.00,,,0.00,,2013-02-26 20:01:00,
2013-02-26 14:11:00,52.0,33.0,29.89,WNW,295,7.0,13.0,49,0.00,,,0.00,,2013-02-26 20:11:00,
2013-02-26 14:21:00,53.0,34.0,29.89,West,276,6.0,15.0,49,0.00,,,0.00,,2013-02-26 20:21:00,
2013-02-26 14:32:00,54.0,34.0,29.87,WNW,290,8.0,12.0,47,0.00,,,0.00,,2013-02-26 20:32:00,
2013-02-26 14:41:00,54.0,34.0,29.87,WNW,290,8.0,12.0,47,0.00,,,0.00,,2013-02-26 20:41:00,
2013-02-26 14:51:00,53.0,34.0,29.87,West,267,5.0,13.0,48,0.00,,,0.00,,2013-02-26 20:51:00,
2013-02-26 15:01:00,54.0,34.0,29.86,NNW,327,6.0,15.0,47,0.00,,,0.00,,2013-02-26 21:01:00,
2013-02-26 15:11:00,54.0,34.0,29.86,NNW,327,6.0,15.0,47,0.00,,,0.00,,2013-02-26 21:11:00,
2013-02-26 15:21:00,54.0,34.0,29.86,West,279,4.0,13.0,46,0.00,,,0.00,,2013-02-26 21:21:00,
2013-02-26 15:31:00,55.0,35.0,29.86,West,274,6.0,12.0,46,0.00,,,0.00,,2013-02-26 21:31:00,
2013-02-26 15:41:00,55.0,35.0,29.86,West,274,6.0,12.0,46,0.00,,,0.00,,2013-02-26 21:41:00,
2013-02-26 15:51:00,55.0,35.0,29.86,NW,305,3.0,13.0,46,0.00,,,0.00,,2013-02-26 21:51:00,
2013-02-26 16:01:00,55.0,34.0,29.86,WNW,300,6.0,12.0,45,0.00,,,0.00,,2013-02-26 22:01:00,
2013-02-26 16:11:00,56.0,34.0,29.86,West,267,6.0,13.0,44,0.00,,,0.00,,2013-02-26 22:11:00,
2013-02-26 16:21:00,56.0,34.0,29.86,West,267,6.0,13.0,44,0.00,,,0.00,,2013-02-26 22:21:00,
2013-02-26 16:31:00,56.0,34.0,29.86,West,280,6.0,13.0,44,0.00,,,0.00,,2013-02-26 22:31:00,
2013-02-26 16:41:00,56.0,34.0,29.86,West,280,6.0,13.0,44,0.00,,,0.00,,2013-02-26 22:41:00,
2013-02-26 16:51:00,56.0,34.0,29.86,West,278,5.0,12.0,44,0.00,,,0.00,,2013-02-26 22:51:00,
2013-02-26 17:01:00,56.0,34.0,29.86,WNW,284,2.0,7.0,43,0.00,,,0.00,,2013-02-26 23:01:00,
2013-02-26 17:11:00,56.0,34.0,29.86,WNW,284,2.0,7.0,43,0.00,,,0.00,,2013-02-26 23:11:00,
2013-02-26 17:21:00,56.0,34.0,29.86,West,274,5.0,12.0,43,0.00,,,0.00,,2013-02-26 23:21:00,
2013-02-26 17:31:00,56.0,33.0,29.86,West,274,3.0,10.0,42,0.00,,,0.00,,2013-02-26 23:31:00,
2013-02-26 17:41:00,56.0,33.0,29.86,West,274,3.0,10.0,42,0.00,,,0.00,,2013-02-26 23:41:00,
2013-02-26 17:52:00,56.0,33.0,29.86,West,269,3.0,10.0,42,0.00,,,0.00,,2013-02-26 23:52:00,
2013-02-26 18:01:00,56.0,33.0,29.86,West,274,5.0,12.0,42,0.00,,,0.00,,2013-02-27 00:01:00,
2013-02-26 18:11:00,56.0,33.0,29.86,West,274,5.0,12.0,42,0.00,,,0.00,,2013-02-27 00:11:00,
2013-02-26 18:21:00,56.0,33.0,29.86,West,278,2.0,5.0,42,0.00,,,0.00,,2013-02-27 00:21:00,
2013-02-26 18:31:00,56.0,34.0,29.86,West,278,1.0,3.0,43,0.00,,,0.00,,2013-02-27 00:31:00,
2013-02-26 18:41:00,56.0,34.0,29.86,West,278,1.0,3.0,43,0.00,,,0.00,,2013-02-27 00:41:00,
2013-02-26 18:51:00,55.0,33.0,29.86,West,278,0.0,3.0,44,0.00,,,0.00,,2013-02-27 00:51:00,
2013-02-26 19:01:00,54.0,34.0,29.87,West,278,0.0,1.0,46,0.00,,,0.00,,2013-02-27 01:01:00,
2013-02-26 19:11:00,54.0,34.0,29.87,West,278,0.0,1.0,46,0.00,,,0.00,,2013-02-27 01:11:00,
2013-02-26 19:21:00,53.0,33.0,29.88,West,278,0.0,1.0,47,0.00,,,0.00,,2013-02-27 01:21:00,
2013-02-26 19:32:00,52.0,34.0,29.88,West,278,0.0,0.0,50,0.00,,,0.00,,2013-02-27 01:32:00,
2013-02-26 19:42:00,52.0,34.0,29.88,West,278,0.0,0.0,50,0.00,,,0.00,,2013-02-27 01:42:00,
2013-02-26 19:51:00,51.0,34.0,29.88,West,278,0.0,0.0,52,0.00,,,0.00,,2013-02-27 01:51:00,
2013-02-26 20:01:00,49.0,34.0,29.88,West,278,0.0,0.0,55,0.00,,,0.00,,2013-02-27 02:01:00,
2013-02-26 20:14:00,49.0,34.0,29.88,West,278,0.0,0.0,55,0.00,,,0.00,,2013-02-27 02:14:00,
2013-02-26 20:22:00,48.0,33.0,29.88,West,278,0.0,0.0,56,0.00,,,0.00,,2013-02-27 02:22:00,
2013-02-26 20:32:00,47.0,34.0,29.89,West,278,0.0,1.0,60,0.00,,,0.00,,2013-02-27 02:32:00,
2013-02-26 20:42:00,47.0,34.0,29.89,West,278,0.0,1.0,60,0.00,,,0.00,,2013-02-27 02:42:00,
2013-02-26 20:52:00,46.0,33.0,29.89,West,278,0.0,1.0,61,0.00,,,0.00,,2013-02-27 02:52:00,
2013-02-26 21:01:00,45.0,34.0,29.89,West,278,0.0,0.0,64,0.00,,,0.00,,2013-02-27 03:01:00,
2013-02-26 21:11:00,45.0,34.0,29.89,West,278,0.0,0.0,64,0.00,,,0.00,,2013-02-27 03:11:00,
2013-02-26 21:21:00,44.0,33.0,29.91,West,278,0.0,1.0,65,0.00,,,0.00,,2013-02-27 03:21:00,
2013-02-26 21:32:00,43.0,33.0,29.92,West,278,0.0,1.0,68,0.00,,,0.00,,2013-02-27 03:32:00,
2013-02-26 21:42:00,43.0,33.0,29.92,West,278,0.0,1.0,68,0.00,,,0.00,,2013-02-27 03:42:00,
2013-02-26 21:51:00,43.0,34.0,29.92,West,278,0.0,1.0,69,0.00,,,0.00,,2013-02-27 03:51:00,
2013-02-26 22:01:00,42.0,33.0,29.93,West,278,0.0,1.0,70,0.00,,,0.00,,2013-02-27 04:01:00,
2013-02-26 22:11:00,42.0,33.0,29.93,West,278,0.0,1.0,70,0.00,,,0.00,,2013-02-27 04:11:00,
2013-02-26 22:21:00,41.0,32.0,29.93,West,278,0.0,1.0,71,0.00,,,0.00,,2013-02-27 04:21:00,
2013-02-26 22:32:00,41.0,33.0,29.93,West,278,0.0,1.0,72,0.00,,,0.00,,2013-02-27 04:32:00,
2013-02-26 22:51:00,40.0,32.0,29.93,West,278,0.0,0.0,73,0.00,,,0.00,,2013-02-27 04:51:00,
2013-02-26 23:01:00,40.0,32.0,29.92,West,278,0.0,0.0,74,0.00,,,0.00,,2013-02-27 05:01:00,
2013-02-26 23:22:00,39.0,31.0,29.92,West,278,0.0,0.0,74,0.00,,,0.00,,2013-02-27 05:22:00,
2013-02-26 23:32:00,39.0,32.0,29.92,West,278,0.0,0.0,75,0.00,,,0.00,,2013-02-27 05:32:00,
2013-02-26 23:52:00,38.0,31.0,29.91,West,278,0.0,0.0,76,0.00,,,0.00,,2013-02-27 05:52:00,